COSMOS 1275 DEB, 17617

Orbit data source: Space-Track

COSMOS 1275 DEB, 17617 is space debris in LEO originally from a launch on Thu, 04 Jun 1981 UTC launched from the Plesetsk Missile And Space Complex (PKMTR). Debris objects in space refer to the collection of defunct objects orbiting the Earth. Examples of debris include non-operational satellites, rocket bodies, and fragments generated from explosions, collisions, or faulty payload assembly.

Loading next visibility...
Identifier
17617, 1981-053KL
Orbit
LEO
Country
Flag of CISCIS
Related business
Manufacturer
Unknown
Mission
Spacecraft
Bus & Motor
Unknown
Mass
Unknown
Launch date (UTC)
1981-06-04 (45 years ago)
Launch vehicle
Unknown
Launch site
Plesetsk Missile And Space Complex (PKMTR)
Object type
Payload
Rocket body
Debris
Shape & HBR
Unknown shape, 0.1 m
Radar Cross Section
Medium (>0.1 m² and <1 m²)

Expand to show TLE details & history
Last TLE update: 14 hours ago

TLE from 14 hours ago
0 COSMOS 1275 DEB
1 17617U 81053KL  26149.91659655  .00000591  00000-0  61664-3 0  9998
2 17617  82.8581 134.5984 0172256 203.5454 184.0109 13.67620044 39790
Epoch: 2026-05-29T21:59Z
TLE epoch observation values (Epoch: 2026-05-29T21:59:53.941Z)
Latitude
27.22706°
Longitude
-79.13885°
Altitude
1,138.397 km
Speed
7.223 km/s
True Right ascension
09h 13m 06s
True Declination
27° 05' 40"
Sunlit
Object was in daylight at epoch
Visualization orbit readout
Latitude
Unknown
Longitude
Unknown
Altitude
Unknown
Speed
Unknown
Apparent Right ascension
Unknown
Apparent Declination
Unknown
Sunlit
N/A
Visualization observer readout
Local Sidereal Time
21:47:06
Azimuth
Unknown
Elevation
Unknown
Doppler factor
Unknown
Orbital elements
Apogee altitude
1,132.473 km
Perigee altitude
878.105 km
Semi-major axis
7,383.426 km
Eccentricity
0.01723
Inclination
82.8581°
RAAN
134.5984°
Arg. of periapsis
203.5454°
True anomaly
183.87574°
Mean anomaly
184.0109°
Eccentric anomaly
183.94303°
Mean motion
3.42103 °/min
Orbital period
105.23 mins
BSTAR
0.00061664
Loading maneuver chart data...
Computing Atmospheric mass density...
Loading historical data...
Loading historical data...
Loading historical data...
Loading historical data...
Loading historical data...
Loading historical data...
Loading historical data...

Documentation

Showing up to 5 results
|